Dewpoint
72 69 69 71 69 68 68 68 72 73 73 74 74 74 75 74 72 75 74 74 75 72
72 72 71 73 73 70 72 70 72 72 72 73 73 74 75 72 73 74 75 75 75 73
72 73 72 73 73 73 73 73 73 72 72 72 73 74 75 73 73 74 72 75 74 73
71 72 72 72 73 73 74 74 73 74 74 74 73 73 74 75 74 74 74 74 74 74
71 72 71 72 74 74 74 74 74 74 74 74 73 74 74 72 71 72 72 72 73 72
70 71 72 73 73 74 74 74 74 74 74 74 74 73 74 73 72 71 72 72 72 71
71 72 71 73 74 74 74 74 74 75 74 73 73 73 73 73 74 73 71 72 71 72
73 73 73 73 74 74 74 73 74 74 73 73 74 73 73 74 73 73 72 72 72 73
70 72 73 74 74 74 74 74 74 73 73 73 72 63 65 67 72 74 74 73 73 73
69 69 70 71 72 73 74 74 74 72 72 71 68 61 63 65 68 70 72 73 73 71
68 68 68 69 70 71 71 71 71 70 70 69 64 58 59 62 68 68 70 71 72 70
68 66 67 67 68 68 69 67 68 67 67 67 66 56 57 63 70 68 67 67 64 66
66 66 66 65 64 64 65 62 63 61 61 56 60 54 55 62 68 67 65 63 61 56
65 64 63 63 62 61 61 61 60 59 58 58 55 56 53 55 66 66 63 60 59 57
Lifted_Index
-4 -3 -3 -4 -3 -3 -3 -3 -3 -4 -4 -5 -5 -5 -6 -6 -6 -6 -7 -7 -7 -6
-4 -4 -4 -4 -4 -4 -3 -3 -3 -4 -4 -4 -5 -5 -6 -6 -6 -6 -6 -6 -6 -6
-4 -4 -4 -4 -4 -4 -4 -4 -4 -4 -4 -4 -4 -5 -5 -5 -5 -5 -6 -6 -6 -5
-4 -4 -4 -4 -4 -4 -4 -4 -4 -4 -4 -4 -4 -5 -5 -5 -5 -5 -5 -5 -5 -5
-4 -4 -4 -4 -4 -5 -5 -5 -5 -4 -4 -5 -5 -5 -5 -5 -5 -5 -5 -5 -5 -5
-4 -4 -4 -4 -4 -5 -5 -5 -5 -5 -5 -4 -5 -5 -5 -5 -4 -4 -4 -4 -4 -4
-4 -4 -4 -5 -5 -5 -5 -5 -5 -5 -5 -5 -4 -4 -5 -5 -5 -4 -4 -4 -4 -4
-4 -4 -4 -4 -5 -5 -5 -5 -5 -5 -5 -5 -4 -4 -4 -4 -4 -4 -4 -4 -4 -4
-3 -3 -3 -4 -4 -5 -5 -5 -5 -5 -5 -4 -3 -3 -3 -3 -3 -3 -4 -4 -4 -4
-2 -2 -2 -2 -3 -4 -4 -4 -4 -4 -4 -3 -3 -2 -2 -2 -2 -2 -3 -3 -3 -3
-1 -1 -1 -1 -1 -2 -3 -3 -2 -2 -2 -2 -1 -1 -1 -1 -1 -1 -2 -2 -2 -2
-1 -0 0 0 -0 -1 -1 -1 -0 -0 -0 -0 -0 -0 -1 -1 -1 -1 -1 -1 -2 -1
-0 0 0 1 1 0 0 1 1 1 1 0 0 0 -0 -1 -1 -1 -1 -1 -1 -1
0 1 1 1 1 1 1 1 1 1 1 1 1 0 -0 -1 -1 -1 -1 -1 -1 -0